Tracking 19242 objects as of 16-Aug-2018
HD Live streaming from Space Station
objects crossing your sky now

NOAA 16 DEB

Track NOAA 16 DEB now!
10-day predictions


NORAD ID: 41203
Int'l Code: 2000-055DG
Perigee: 850.4 km
Apogee: 901.2 km
Inclination: 98.9 °
Period: 102.3 minutes
Semi major axis: 7246 km
RCS: Unknown
Launch date: September 21, 2000
Source: United States (US)
Launch site: AIR FORCE WESTERN TEST RANGE (AFWTR)

Note: This is SATELLITE DEBRIS
aabbcc
Your satellite tracking list
Your tracking list is empty




NASA's NSSDC Master Catalog

Two Line Element Set (TLE):
1 41203U 00055DG  18227.40265037 +.00000515 +00000-0 +33088-3 0  9993
2 41203 098.8732 293.4643 0035039 319.9182 039.9403 14.07300564138036
Source of the keplerian elements: AFSPC